Location: Matrei
(47.1333°N, 11.4500°E)
Time: 08:34:12
(UTC+00:00)

Cosmos 1328 Rocket - Pass Details

Date: 07 June 2020
Orbit: 600 x 628 km, 82.5° (Epoch: 15 July)

Event Time Altitude Azimuth Distance (km) Brightness Sun altitude
Rises 02:27:40 0° 351° (N) 2,908 7.6 -7.5°
Reaches altitude 10° 02:29:55 10° 352° (N) 1,993 6.7 -7.2°
Maximum altitude 02:34:20 86° 79° (E) 623 3.6 -6.7°
Drops below altitude 10° 02:38:41 10° 171° (S) 1,959 5.8 -6.2°
Sets 02:40:52 0° 171° (S) 2,854 6.6 -5.9°
